Location: Kresge Environmental Education Center
(43.1138°N, 83.2433°W)
Time: 01:10:11
(UTC-04:00)

Daily predictions for brighter satellites

Satellite Brightness Start Highest point End
(mag) Time Altitude Azimuth Time Altitude Azimuth Time Altitude Azimuth
SL-16 R/B 4.3 03:07:10 26° NE 03:07:10 26° NE 03:10:47 10° N
Cosmos 2237 Rocket 4.5 03:15:12 10° N 03:19:12 19° NE 03:23:11 10° E
ATLAS 5 CENTAUR R/B 4.3 03:22:13 24° ENE 03:22:13 24° ENE 03:25:52 10° E
ATLAS 2AS CENTAUR R/B 3.7 03:37:57 47° N 03:37:57 47° N 03:44:02 10° NNE
CZ-2D R/B 4.0 03:43:46 10° NNE 03:46:21 26° NE 03:46:21 26° NE
Cosmos 2227 Rocket 4.0 03:53:49 24° E 03:53:49 24° E 03:57:45 10° NE
Cosmos 2344 3.8 03:57:12 64° ESE 03:57:12 64° ESE 04:05:27 10° NE
Cosmos 2297 Rocket 4.2 04:01:59 21° ESE 04:02:32 21° E 04:06:38 10° NE
NOSS 3-2 (A) 4.2 03:55:56 10° NNW 04:03:20 65° NE 04:11:19 10° SE
Resurs 1-4 Rocket 3.4 04:05:58 10° NNE 04:09:10 36° NNE 04:09:10 36° NNE
Lacrosse 5 3.1 04:27:02 37° E 04:27:02 37° E 04:30:27 10° NE
USA 215 4.4 04:22:10 10° SE 04:25:08 29° SSE 04:25:08 29° SSE
Cosmos 2082 4.3 04:33:43 48° ESE 04:33:51 48° ESE 04:39:15 10° NE
CENTAUR R/B 4.4 04:29:20 10° NNW 04:36:14 35° NE 04:43:38 10° ESE
MOS 1-B 4.4 04:31:50 10° NNE 04:37:38 70° ESE 04:37:38 70° ESE
Cosmos 2333 Rocket 4.3 04:35:54 10° NNW 04:48:08 - SSE 04:36:54 16° NNW
NOSS 3-2 (C) 3.9 04:34:29 10° NW 04:42:01 85° NE 04:50:07 10° SE
Lacrosse 5 rocket 3.4 04:49:25 24° N 04:49:25 24° N 04:52:03 10° NNE
SL-16 R/B 3.9 04:52:16 25° NW 04:52:16 25° NW 04:54:53 10° NNW
Cosmos 1777 Rocket 4.5 04:50:08 53° N 04:50:08 53° N 04:54:14 10° NNE
CZ-4B R/B 4.5 04:50:41 10° NNE 04:54:48 36° E 04:56:14 29° SE
Cosmos 1934 Rocket 4.5 04:50:02 10° NNW 04:54:32 45° NW 04:54:32 45° NW
ARIANE 5 R/B 3.9 04:52:09 10° N 04:54:50 28° NNW 04:54:50 28° NNW
Meteor 1-19 Rocket 4.5 04:59:00 39° SSE 05:01:01 66° E 05:06:35 10° NNE
Cosmos 1605 Rocket 3.8 04:55:02 10° N 05:01:11 76° W 05:02:13 62° SSW
CZ-4B R/B 3.9 04:58:21 10° NNE 05:03:38 51° E 05:07:14 20° S
Cosmos 1666 4.2 05:00:06 10° N 05:03:44 37° ENE 05:07:18 10° SE
Cosmos 2237 Rocket 2.7 04:58:16 10° NNW 05:05:43 44° S 05:09:30 10° SSE
Cosmos 1025 Rocket 3.3 05:05:16 63° E 05:05:16 63° E 05:09:33 10° NNE
ATLAS 5 CENTAUR R/B 2.2 05:03:59 46° NW 05:05:54 76° WSW 05:12:22 10° SSE
NOSS 3-4 (A) 3.4 05:05:23 63° WSW 05:06:27 80° NW 05:13:04 10° NE
NOSS 3-4 (C) 3.4 05:05:28 63° SW 05:06:34 81° NW 05:13:10 10° NE
ADEOS II 4.0 05:02:08 10° NE 05:06:37 28° E 05:11:04 10° SSE
Cosmos 2112 Rocket 3.9 05:03:52 10° NNW 05:09:13 89° WSW 05:14:28 10° SSE
Meteor 2-4 Rocket 4.2 05:07:51 17° S 05:12:23 61° E 05:18:14 10° NNE
Cosmos 1680 Rocket 3.6 05:08:13 10° NNW 05:16:33 25° S 05:18:42 10° S
Okean O Rocket 1.4 05:17:31 10° NNE 05:21:56 84° WNW 05:22:15 76° SW
Cosmos 1606 Rocket 3.5 05:17:53 10° N 05:22:17 82° E 05:25:38 17° S
SL-16 R/B 2.4 05:18:38 10° NNW 05:24:20 72° ENE 05:29:59 10° SSE
Meteor 2-9 Rocket 4.4 05:22:03 10° N 05:27:43 77° E 05:33:30 10° SSE
CZ-2D R/B 3.2 05:24:10 10° N 05:27:41 27° NW 05:27:41 27° NW
Cosmos 1726 Rocket 3.4 05:28:30 10° N 05:32:56 90° SE 05:37:17 10° S
Meteor 1-13 Rocket 4.4 05:33:03 43° WSW 05:34:22 51° WNW 05:39:57 10° N
Cosmos 2227 Rocket 2.4 05:35:40 42° W 05:36:57 50° WNW 05:42:29 10° NNE
Cosmos 2298 Rocket 4.3 05:33:43 17° S 05:37:49 70° ESE 05:43:07 10° NNE
Cosmos 220 Rocket 4.2 05:38:13 47° WNW 05:38:13 47° WNW 05:42:11 10° N
Cosmos 2061 Rocket 4.0 05:33:33 10° N 05:39:54 86° E 05:46:17 10° S
Cosmos 2100 Rocket 3.9 05:33:54 10° N 05:40:10 86° W 05:46:28 10° S
Cosmos 1802 Rocket 4.1 05:35:23 10° N 05:41:35 79° E 05:47:43 10° S
RESURS DK-1 2.6 05:45:28 45° WNW 05:45:45 46° WNW 05:49:47 10° NNE
Cosmos 2297 Rocket 2.3 05:43:50 35° SW 05:46:05 58° WNW 05:51:41 10° NNE
Cosmos 1892 Rocket 3.5 05:43:29 24° SSW 05:46:10 77° W 05:50:40 10° N
Cosmos 1346 Rocket 2.7 05:45:29 46° SW 05:46:29 66° WNW 05:50:29 10° N
Aureole 2 Rocket 2.6 05:44:09 10° NNW 05:47:38 65° ENE 05:50:47 10° SSE
IRS-1C Rocket 4.2 05:42:58 10° N 05:48:06 52° WNW 05:50:31 29° SW
Thor Agena Rocket 3.5 05:43:29 10° SSE 05:48:47 79° WSW 05:54:06 10° NNW
PSLV R/B 3.6 05:46:07 10° NNE 05:50:28 79° ESE 05:54:45 10° S
Resurs 1-4 Rocket 3.6 05:46:59 10° NNW 05:50:15 19° NW 05:50:15 19° NW
Cosmos 2150 Rocket 4.0 05:47:14 12° SSW 05:51:57 81° ESE 05:57:07 10° NNE
CZ-2C R/B 4.1 05:51:40 31° SW 05:53:00 38° W 05:57:21 10° NNW
Tiangong 1 0.8 05:53:54 73° WSW 05:54:09 84° S 05:57:11 10° E
MOS 1 Rocket 4.4 05:51:33 10° NNE 05:56:12 47° E 06:01:07 10° S
Cosmos 2228 2.9 05:56:48 10° N 06:01:13 83° W 06:05:35 10° S
CZ-4B DEB 4.3 05:58:47 10° N 06:04:06 53° WNW 06:09:02 12° SW
Cosmos 292 Rocket 4.1 06:00:05 10° NW 06:04:39 42° WSW 06:09:12 10° S
Cosmos 1174 4.5 06:02:10 10° NNW 06:05:02 41° NE 06:08:08 10° SE
Lacrosse 5 2.6 06:06:15 24° W 06:08:40 37° NNW 06:13:24 10° NE
Cosmos 2098 Rocket 3.0 06:05:10 10° N 06:09:04 84° W 06:14:02 10° S
Cosmos 192 4.5 06:05:24 10° NNW 06:10:23 79° ENE 06:15:18 10° SSE
BREEZE M DEB (TANK) 3.7 06:09:00 22° WNW 06:11:11 47° N 06:20:54 10° ENE
Cosmos 1603 4.1 06:06:03 10° NNW 06:11:47 67° ENE 06:17:26 10° SE
Cosmos 2016 Rocket 4.0 06:08:02 10° NNW 06:14:22 71° W 06:20:34 10° S
DELTA 2 R/B (1) 3.9 06:13:35 20° WSW 06:17:22 56° S 06:22:49 10° E
CZ-4B R/B 4.2 06:13:45 10° NNE 06:17:40 63° ESE 06:21:24 10° S
Cosmos 2173 Rocket 4.2 06:13:58 10° NNW 06:19:45 46° W 06:25:33 10° SSW
Cosmos 1898 Rocket 3.7 06:14:55 10° SW 06:20:03 54° WNW 06:25:16 10° NNE
SL-08 R/B 4.4 06:16:32 10° NNW 06:22:45 73° W 06:29:02 10° S
Meteor 1-31 Rocket 2.9 06:19:44 10° NNE 06:23:40 82° ESE 06:27:35 10° S
ADEOS Rocket 3.5 06:17:03 10° N 06:24:00 53° WNW 06:30:15 10° SW
Cosmos 2058 Rocket 3.8 06:22:32 10° NNW 06:26:23 31° W 06:30:12 10° SSW
Cosmos 1459 Rocket 4.4 06:20:52 10° NNW 06:26:45 41° W 06:32:34 10° SSW
Okean-O 2.7 06:22:45 10° N 06:27:05 54° WNW 06:31:24 10° SSW
Genesis I 4.0 06:23:41 10° SSW 06:27:35 54° ESE 06:31:31 10° NE
CENTAUR R/B 3.1 06:19:48 10° NW 06:27:38 74° WSW 06:35:57 10° SSE
Lacrosse 5 rocket 3.8 06:26:21 10° NW 06:28:43 14° N 06:31:03 10° NNE
CZ-4B R/B 4.3 06:26:17 10° NNW 06:29:45 23° WNW 06:32:25 14° WSW
NOSS 2-2 (D) 3.7 06:27:05 10° SSW 06:31:10 79° SE 06:35:57 10° NE
USA 129 1.4 06:29:42 10° S 06:31:33 46° WSW 06:33:15 10° NNW
Cosmos 1937 Rocket 3.6 06:27:17 10° SW 06:32:25 58° WNW 06:37:39 10° NNE
Cosmos 2123 Rocket 3.9 06:27:22 10° SSW 06:33:32 76° W 06:39:45 10° N
Cosmos 1666 4.3 06:36:50 10° NW 06:39:05 15° W 06:41:18 10° WSW
Cosmos 1515 3.7 06:35:31 10° SSW 06:39:17 61° W 06:43:06 10° N
COSMO-SKYMED 1 2.9 06:35:18 10° SSE 06:39:36 71° ENE 06:43:57 10° N
Feng Yun 1-1 Rocket 4.4 06:34:06 10° N 06:39:36 56° WNW 06:45:14 10° SSW
NOAA 6 4.1 06:35:40 10° NNE 06:40:54 87° ESE 06:46:06 10° SSW
Intercosmos 25 Rocket 3.6 06:39:46 10° N 06:43:18 85° E 06:48:29 10° S
CZ-4B R/B 4.3 06:39:40 10° NNW 06:43:52 24° WNW 06:48:07 10° WSW
ADEOS II 2.6 06:41:34 10° N 06:46:26 39° WNW 06:51:16 10° SW
NOSS 2-2 (C) 3.6 06:42:25 10° SW 06:46:32 75° NW 06:51:25 10° NE
EXPRESS MD2 4.0 06:43:31 10° WNW 06:46:55 52° SSW 06:53:39 10° SE
NOSS 2-2 (E) 3.7 06:44:00 10° SW 06:48:10 66° NW 06:53:09 10° NNE
ATLAS 5 CENTAUR R/B 4.0 06:46:58 10° W 06:49:53 14° WSW 06:52:53 10° SW
Cosmos 1340 2.7 06:48:55 10° S 06:52:42 89° E 06:56:32 10° N
AVUM R/B 4.1 06:50:48 10° NNW 06:53:08 37° ENE 06:55:19 10° SE
Cosmos 2227 4.3 06:49:31 10° SW 06:55:13 63° WNW 07:00:57 10° NNE
Cosmos 1626 Rocket 4.1 06:53:41 10° SW 06:57:43 36° WNW 07:01:44 10° N
Radarsat Rocket 4.2 06:53:47 10° NNE 07:00:37 82° WNW 07:06:42 10° SSW
